Monistrol de Calders (Moianès)





Hora UTC 09:25
Temperatura 26.2 ºC
Humedad 49.0 %
Presión 1011.3 hPa
Pluja 0.0 mm
Velocidad viento 12.9 km/h
Dirección viento SSW

Datos diarios 2024-06-18



Hora UTC (invierno +1h; verano +2h)
Temperatura (ºC) Humedad (%) Presión (hPa) Velocidad viento (km/h) Precipitación (mm)
Hora UTC Aire Humedad Presión Vel. Dir. Vel. Max Dir. Intent. máx 5 min.
00:05 15.6 86.0 1013.4 1.6 SSE 1.6 0.0
00:10 15.6 87.0 1013.4 1.6 SSE 3.2 0.0
00:15 15.5 87.0 1013.3 3.2 SSE 4.8 0.0
00:20 15.4 87.0 1013.2 3.2 SE 8.0 0.0
00:25 15.3 87.0 1013.2 4.8 S 6.4 0.0
00:30 15.3 87.0 1013.2 3.2 SE 6.4 0.0
00:35 15.3 87.0 1013.2 1.6 SSE 4.8 0.0
00:40 15.2 87.0 1013.2 0.0 S 4.8 0.0
00:45 15.2 87.0 1013.2 3.2 SSE 4.8 0.0
00:50 15.2 87.0 1013.1 1.6 SSE 4.8 0.0
00:55 15.2 87.0 1013.1 0.0 SSE 4.8 0.0
01:00 15.1 87.0 1013.1 4.8 SE 4.8 0.0
01:05 15.1 87.0 1013.1 3.2 SSE 4.8 0.0
01:10 14.9 87.0 1013.0 3.2 SSE 4.8 0.0
01:15 14.9 87.0 1013.0 0.0 S 4.8 0.0
01:20 14.8 87.0 1013.0 0.0 S 4.8 0.0
01:25 14.8 87.0 1013.0 0.0 S 1.6 0.0
01:30 14.7 87.0 1012.9 1.6 S 1.6 0.0
01:35 14.6 87.0 1012.9 0.0 S 1.6 0.0
01:40 14.6 87.0 1012.9 1.6 ESE 4.8 0.0
01:45 14.4 87.0 1012.9 4.8 SSE 4.8 0.0
01:50 14.4 87.0 1012.9 1.6 SSE 4.8 0.0
01:55 14.3 87.0 1012.9 0.0 SSE 3.2 0.0
02:00 14.2 87.0 1012.8 3.2 SE 3.2 0.0
02:05 14.1 87.0 1012.6 3.2 SE 3.2 0.0
02:10 14.1 87.0 1012.6 3.2 SE 6.4 0.0
02:15 13.9 87.0 1012.6 1.6 SSE 6.4 0.0
02:20 13.9 87.0 1012.5 3.2 SSE 4.8 0.0
02:25 13.8 87.0 1012.4 1.6 SSE 3.2 0.0
02:30 13.7 87.0 1012.3 3.2 SE 3.2 0.0
02:35 13.7 87.0 1012.3 1.6 SSE 4.8 0.0
02:40 13.7 87.0 1012.3 3.2 ESE 4.8 0.0
02:45 13.6 87.0 1012.3 3.2 SE 6.4 0.0
02:50 13.5 87.0 1012.4 1.6 SE 6.4 0.0
02:55 13.4 87.0 1012.4 4.8 SE 6.4 0.0
03:00 13.4 87.0 1012.4 1.6 ESE 6.4 0.0
03:05 13.3 87.0 1012.3 4.8 SSE 6.4 0.0
03:10 13.3 87.0 1012.3 4.8 SE 6.4 0.0
03:15 13.2 87.0 1012.3 4.8 ESE 6.4 0.0
03:20 13.1 87.0 1012.3 6.4 SSE 8.0 0.0
03:25 13.1 87.0 1012.3 1.6 SSE 8.0 0.0
03:30 13.1 87.0 1012.3 8.0 SSE 8.0 0.0
03:35 13.2 87.0 1012.2 6.4 S 9.7 0.0
03:40 13.2 87.0 1012.2 1.6 SE 9.7 0.0
03:45 13.1 87.0 1012.2 4.8 SE 6.4 0.0
03:50 13.1 87.0 1012.3 1.6 SSE 8.0 0.0
03:55 13.0 87.0 1012.3 1.6 SE 8.0 0.0
04:00 12.9 87.0 1012.2 3.2 ESE 4.8 0.0
04:05 12.8 87.0 1012.1 4.8 SSE 6.4 0.0
04:10 12.8 87.0 1012.1 3.2 SE 6.4 0.0
04:15 12.8 87.0 1012.0 6.4 SSE 9.7 0.0
04:20 12.8 87.0 1012.0 4.8 SSE 9.7 0.0
04:25 12.7 87.0 1011.9 3.2 SE 8.0 0.0
04:30 12.7 87.0 1011.9 4.8 S 8.0 0.0
04:35 12.8 87.0 1012.0 0.0 S 8.0 0.0
04:40 12.8 87.0 1011.9 6.4 SSE 8.0 0.0
04:45 12.8 87.0 1011.8 1.6 SSE 6.4 0.0
04:50 12.8 87.0 1011.8 3.2 SE 8.0 0.0
04:55 12.7 87.0 1011.9 4.8 SSE 8.0 0.0
05:00 12.8 87.0 1011.9 3.2 SE 6.4 0.0
05:05 12.9 87.0 1011.9 1.6 SSE 9.7 0.0
05:10 12.9 87.0 1011.9 1.6 S 9.7 0.0
05:15 13.1 87.0 1012.0 1.6 SSE 8.0 0.0
05:20 13.2 87.0 1012.0 1.6 SE 4.8 0.0
05:25 13.5 87.0 1012.0 3.2 SE 4.8 0.0
05:30 13.7 87.0 1012.0 3.2 SE 4.8 0.0
05:35 13.8 87.0 1012.1 3.2 SSE 8.0 0.0
05:40 14.2 87.0 1012.1 1.6 SE 4.8 0.0
05:45 14.5 87.0 1012.1 0.0 SE 4.8 0.0
05:50 14.8 87.0 1012.0 0.0 SE 3.2 0.0
05:55 15.2 87.0 1012.2 0.0 SE 3.2 0.0
06:00 15.5 87.0 1012.1 1.6 SE 3.2 0.0
06:05 15.8 87.0 1012.2 1.6 SSE 3.2 0.0
06:10 16.1 87.0 1012.2 3.2 SSE 4.8 0.0
06:15 16.3 87.0 1012.2 0.0 SE 4.8 0.0
06:20 16.8 87.0 1012.2 0.0 SE 4.8 0.0
06:25 17.3 86.0 1012.2 1.6 SE 3.2 0.0
06:30 17.7 85.0 1012.1 1.6 NNW 4.8 0.0
06:35 18.1 85.0 1012.0 1.6 NNE 4.8 0.0
06:40 18.5 84.0 1012.0 1.6 NNW 3.2 0.0
06:45 19.0 83.0 1012.0 0.0 NNE 3.2 0.0
06:50 19.4 82.0 1011.9 0.0 E 3.2 0.0
06:55 19.8 80.0 1011.8 1.6 N 3.2 0.0
07:00 20.2 79.0 1011.8 0.0 N 3.2 0.0
07:05 20.8 77.0 1011.8 1.6 SE 3.2 0.0
07:10 21.3 75.0 1011.8 3.2 ESE 4.8 0.0
07:15 21.8 73.0 1011.7 0.0 E 4.8 0.0
07:20 22.1 68.0 1011.8 8.0 S 9.7 0.0
07:25 22.4 65.0 1011.7 8.0 S 9.7 0.0
07:30 22.8 62.0 1011.7 9.7 S 11.3 0.0
07:35 23.0 61.0 1011.7 8.0 S 12.9 0.0
07:40 23.2 60.0 1011.7 11.3 S 12.9 0.0
07:45 23.3 58.0 1011.5 3.2 W 12.9 0.0
07:50 23.7 56.0 1011.4 3.2 SE 9.7 0.0
07:55 24.3 53.0 1011.3 4.8 ENE 11.3 0.0
08:00 24.6 52.0 1011.3 3.2 E 11.3 0.0
08:05 24.8 51.0 1011.3 4.8 E 12.9 0.0
08:10 24.9 51.0 1011.4 11.3 ESE 14.5 0.0
08:15 24.9 50.0 1011.3 3.2 ESE 16.1 0.0
08:20 25.2 49.0 1011.2 9.7 ESE 16.1 0.0
08:25 25.4 50.0 1011.3 3.2 SSE 12.9 0.0
08:30 25.8 51.0 1011.2 3.2 ESE 8.0 0.0
08:35 26.0 50.0 1011.1 4.8 SW 8.0 0.0
08:40 25.8 49.0 1011.1 14.5 SSE 14.5 0.0
08:45 25.8 49.0 1011.1 9.7 S 16.1 0.0
08:50 25.8 50.0 1011.1 1.6 ESE 20.9 0.0
08:55 25.9 49.0 1011.0 11.3 SSE 20.9 0.0
09:00 26.1 48.0 1011.1 4.8 SSW 16.1 0.0
09:05 26.0 49.0 1011.0 9.7 SSE 16.1 0.0
09:10 26.2 48.0 1011.2 16.1 SE 19.3 0.0
09:15 26.3 49.0 1011.3 1.6 ESE 19.3 0.0
09:20 26.6 49.0 1011.2 6.4 S 16.1 0.0
09:25 26.2 49.0 1011.3 12.9 SSW 27.4 0.0
Máxima 26.6 87.0 1013.4 16.1 SE 27.4 0.0
Mínima 12.7 48.0 1011.0
Total 0.0